Regional Weather Roundup
Issued by NWS

Home | Current Version | Previous Version | Text Only | Print | Product List | Glossary On
Versions: 1 2 3 4 5 6 7 8 9 10 11 12 13 14 15 16 17 18 19 20 21 22 23 24 25 26 27 28 29 30 31 32 33 34 35 36 37 38 39 40 41 42 43 44 45 46 47 48 49 50
000
ASUS46 KLOX 101513
RWRCA

SOUTHERN CALIFORNIA WEATHER ROUNDUP
NATIONAL WEATHER SERVICE OXNARD CALIFORNIA
700 AM PST SAT DEC 10 2016

NOTE: "FAIR" INDICATES FEW OR NO CLOUDS BELOW 12,000 FEET WITH NO
SIGNIFICANT WEATHER AND/OR OBSTRUCTIONS TO VISIBILITY.

  -  STATIONS PRECEEDED BY AN ASTERISK (*) ARE NOT NWS OR FAA
     STATIONS AND ARE NOT SUBJECT TO NWS AND FAA QUALITY CONTROL.

CAZ041-042-087-101600-
LA AND ORANGE COUNTY COASTAL AREAS


CITY           SKY/WX    TMP DP  RH WIND       PRES   REMARKS
L.A. DOWNTOWN  CLOUDY    54  53  97 CALM      30.17R FOG
L.A. AIRPORT   CLOUDY    54  53  97 E5        30.17R FOG
LONG BEACH     CLOUDY    57  52  83 N5        30.17R HAZE

CITY           SKY/WX    TMP DP  RH WIND       PRES   REMARKS
FULLERTON      CLOUDY    57  54  89 CALM      30.16R FOG
HAWTHORNE      CLOUDY    56  53  90 CALM      30.18R FOG
*LEO CARRILLO    N/A     56  53  91 N6          N/A
*LOS ALAMITOS  CLOUDY    57  54  88 N5        30.17R
*REDONDO BEACH   N/A     55  52  89 CALM      30.17R
SANTA ANA      CLOUDY    59  56  89 E5        30.16R FOG
STA MONICA APT CLEAR     54  53  97 CALM      30.17R FOG
TORRANCE       CLOUDY    55  52  88 CALM      30.16
*UCLA            N/A     52  50  93 CALM      30.14S

$$

CAZ547-548-048-101600-
LA COUNTY VALLEYS AND INLAND EMPIRE


CITY           SKY/WX    TMP DP  RH WIND       PRES   REMARKS
BURBANK        CLOUDY    48  47  96 N5        30.16S FOG
VAN NUYS       CLOUDY    53  53 100 CALM      30.16S FOG

CITY           SKY/WX    TMP DP  RH WIND       PRES   REMARKS
CORONA AIRPORT CLOUDY    49  48  97 CALM      30.18R
*CHATSWORTH      N/A     51  49  91 CALM      30.18S
CHINO          CLOUDY    50  48  93 CALM      30.18R FOG
*CLAREMONT       N/A     45  43  92 CALM        N/A
MARCH AFB      CLEAR     40  40 100 CALM      30.16R FOG
*NORTHRIDGE      N/A     52  48  87 CALM        N/A
ONTARIO        CLOUDY    48  46  93 N5        30.17R FOG
*PASADENA        N/A     50  48  93 CALM        N/A
POMONA         CLOUDY   N/A N/A N/A CALM      30.20  FOG
RIVERSIDE      MOCLDY    45  43  93 CALM      30.17R FOG
SAN BERNARDINO PTCLDY    46  41  81 CALM      30.17R HAZE
*SAN GABRIEL     N/A     51  49  93 N1        30.25R
*SAN RAFAEL HI   N/A     54  45  71 CALM        N/A
*SAUGUS          N/A     50  43  76 CALM        N/A
*WHITEMAN AP   NOT AVBL
*WHITTIER HILL   N/A     52  52 100 CALM        N/A
*WOODLAND HILL   N/A     54  52  94 S1          N/A

$$

CAZ054-055-101600-
LA AND SAN BERNARDINO COUNTY MOUNTAINS


CITY           SKY/WX    TMP DP  RH WIND       PRES   REMARKS
*BIG BEAR AIRP SUNNY     30  27  86 CALM      30.27R
*CHILAO          N/A     51  43  74 NW14        N/A
SANDBERG       PTCLDY    50  47  89 N13       30.22S
*WARM SPRINGS    N/A     53  46  77 W6          N/A

$$

CAZ028-029-059-060-099-101600-
ANTELOPE VALLEY AND SURROUNDING AREAS


CITY           SKY/WX    TMP DP  RH WIND       PRES   REMARKS
LANCASTER      CLEAR     57  48  72 W17       30.16R
PALMDALE       CLEAR     57  47  69 W16       30.16R
*POPPY PARK      N/A     55  47  75 W14G25      N/A

CITY           SKY/WX    TMP DP  RH WIND       PRES   REMARKS
BARSTOW/DAGGET PTCLDY    40  16  37 SW3       30.12F
BISHOP         PTCLDY    27  20  75 NE6       30.09S WCI  20
CHINA LAKE     PTCLDY    32  22  66 VRB6      30.10R WCI  26
EDWARDS AFB    MOCLDY    44  40  84 SW10      30.14R
MOJAVE         CLEAR     54  48  82 W13       30.15R
NEEDLES        CLEAR     45  19  35 W3        30.14S
VICTORVILLE      N/A     50  37  62 CALM      30.16R

$$

CAZ039-040-101600-
VENTURA AND SANTA BARBARA COUNTY COAST


CITY           SKY/WX    TMP DP  RH WIND       PRES   REMARKS
CAMARILLO      CLOUDY    59  57  93 E3        30.16R FOG
NWS OXNARD       N/A     55  52  89 CALM      30.16R
OXNARD AIRPORT CLOUDY    57  53  86 NE9       30.16S FOG
*POINT MUGU    CLOUDY    57  56  96 N3        30.17R FOG
SBA APT/GOLETA FOG       54  54 100 VRB3      30.15S VSB 1/2
*SANTA BARBARA   N/A     58  54  88 CALM      30.23S
*VENTURA         N/A     53  52  95 NE5       30.15R

$$

CAZ044-045-101600-
VENTURA COUNTY VALLEYS


CITY           SKY/WX    TMP DP  RH WIND       PRES   REMARKS
*SIMI VALLEY     N/A     49  48  97 CALM      30.15S
*WESTLAKE VILL   N/A     52  50  94 CALM      30.16S
*OJAI            N/A     46  44  94 CALM      30.14S
*FILLMORE        N/A     48  46  91 CALM      30.08R

$$

CAZ053-101600-
VENTURA COUNTY MOUNTAINS


CITY           SKY/WX    TMP DP  RH WIND       PRES   REMARKS
*LOCKWOOD VLY    N/A     43  41  93 MISG        N/A
*ROSE VALLEY     N/A     36  37 100 MISG        N/A

$$

CAZ034-035-036-101600-
CENTRAL COAST AND SANTA YNEZ VALLEY


CITY           SKY/WX    TMP DP  RH WIND       PRES   REMARKS
SAN LUIS OBISP CLOUDY    60  59  96 E3        30.19S FOG
SANTA MARIA    FOG       58  58 100 CALM      30.20R VSB 1/2

CITY           SKY/WX    TMP DP  RH WIND       PRES   REMARKS
*CAL POLY SLO    N/A     59  59 100 CALM        N/A
*LOMPOC        FOG       57  57 100 W5        30.19S VSB 3/4
*PISMO BEACH     N/A     58  57  97 CALM      30.20R
*SANTA YNEZ    CLOUDY    55  55 100 MISG      30.19R

$$

CAZ037-038-051-101600-
SAN LUIS OBISPO COUNTY INTERIOR AND CUYAMA VALLEY


CITY           SKY/WX    TMP DP  RH WIND       PRES   REMARKS
*CUYAMA          N/A     46  44  91 NE2       30.16S
PASO ROBLES    CLOUDY    57  56  96 S5        30.18S

$$

CAZ032-033-061-101600-
SOUTHERN DESERTS


CITY           SKY/WX    TMP DP  RH WIND       PRES   REMARKS
BLYTHE         CLEAR     43  18  36 CALM      30.14R
IMPERIAL       CLEAR     45  31  58 CALM      30.11F
PALM SPRINGS   CLEAR     50  43  77 NW5       30.12S
THERMAL        CLEAR     41  37  86 W3        30.11S

$$

ELSEWHERE ACROSS THE WESTERN UNITED STATES AND MEXICO


CITY           SKY/WX    TMP DP  RH WIND       PRES   REMARKS
DEATH VALLEY,    N/A     36  12  36 CALM        N/A
DENVER, CO     CLOUDY    23  18  81 SW7       29.87F WCI  15
GRAND CANYON,  PTCLDY    21  19  92 CALM      30.21F
HONOLULU, HI   PTCLDY    70  68  94 NW5       29.94R
KAHULUI, MAUI  CLOUDY    72  66  83 CALM      29.94S
LAKE TAHOE, CA RAIN      40  35  83 S18G31    30.06F WCI  31
LAS VEGAS, NV  MOCLDY    42  19  39 CALM      30.13S
MAMMOTH LAKES, FAIR      48  31  51 SW23G39   30.13F
MEXICO CITY, M MOSUNNY   55  45  67 NE5       30.51R
PHOENIX, AZ    PTCLDY    49  37  63 NE5       30.13R
PORTLAND, OR   CLOUDY    33  30  88 SE9       29.96F WCI  25
RENO, NV       RAIN      48  42  80 NW8       30.00R
SALT LAKE CITY LGT RAIN  41  37  86 E3        29.96F
SAN DIEGO, CA  CLOUDY    57  52  83 E3        30.18S FOG
SAN FRANCISCO, CLOUDY    59  58  96 S6        30.11R
SAN JOSE, CA   MOCLDY    61  56  83 E8        30.12S
SEATTLE, WA    MOCLDY    38  36  92 S9        29.86S WCI  31
TIJUANA, MEX   CLOUDY    54  50  87 CALM      30.18F FOG

$$

STATION/POSITION TIME  TEMP    WIND        PRES    VSBY  WAVE
                       AIR SEA DIR/SP/G                  HT/PER
                 (UTC) (F)     (DEG/KT/KT) (MB)    (MI)  (FT/S)
POINT ARGUELLO B NOT AVBL
WEST SANTA BARBA 1450   58 56  310/ 12/ 14 1022.1R         5/ 8
POINT CONCEPTION NOT AVBL
EAST SANTA BARBA 1500          280/ 14/ 19 1021.1
SANTA MONICA BAY 1500   60 61  350/  4/  6 1021.1


USA.gov is the U.S. government's official web portal to all federal, state and local government web resources and services.